Theta_e
300 301 301 301 302 300 299 300 300 299 300 299 299 300 299 299 299 295 295 296 302 304 307 310 310 312 313 313 314 316 319 319 319 320 322 324 325 326 327 328 329 330 331 333 337 340 342 344 344 344 345 345 346 346 345 344 343 342 341 340 339 338 338 337 336 336 335 335 335 334 335 334 334 334 334 334 334 334 334 334 335 334 333 331 329 327 328
299 299 301 302 301 301 301 299 300 301 300 299 301 301 300 301 299 301 301 299 303 306 309 311 313 314 315 315 316 317 317 319 320 322 322 324 325 326 327 328 328 330 331 333 335 338 340 342 343 343 344 344 344 344 344 344 343 342 341 339 339 338 338 337 337 337 336 336 335 335 335 334 334 334 335 335 334 333 332 332 332 332 330 329 328 327 327
297 299 300 300 300 300 300 300 300 300 300 300 301 301 301 303 302 302 300 301 303 307 309 313 314 311 313 314 316 317 318 319 322 323 323 324 325 326 327 328 328 329 331 333 334 336 339 341 342 343 344 344 344 344 344 343 343 342 341 339 339 338 338 338 337 336 336 336 336 335 335 335 335 335 334 334 334 333 332 331 330 330 329 327 327 327 327
294 298 299 299 300 300 299 300 301 300 297 297 297 298 299 301 301 300 299 298 299 306 308 310 307 310 312 313 315 316 317 320 323 323 324 325 326 327 328 329 329 329 330 332 333 336 338 340 342 343 343 343 343 343 343 343 343 342 340 339 339 339 338 337 337 336 336 336 335 334 335 335 335 335 335 334 333 332 331 330 330 330 330 328 328 328 329
292 297 299 299 299 299 297 298 300 301 299 300 303 308 310 307 303 299 296 298 305 305 311 308 307 309 311 313 315 316 317 319 323 323 324 326 327 328 329 330 330 330 331 332 334 336 338 340 342 343 344 343 342 342 341 342 342 341 340 339 339 339 338 337 335 336 336 335 333 333 334 335 336 335 334 333 333 332 331 331 331 330 330 330 329 329 329
291 296 298 298 296 291 290 299 301 304 304 305 304 304 306 309 307 301 303 305 306 308 309 308 306 308 311 315 318 320 320 319 320 321 322 325 328 329 331 331 331 331 331 331 333 335 338 341 343 344 343 343 343 342 341 341 340 340 339 338 338 338 337 336 335 336 334 332 332 332 333 335 335 335 334 333 333 333 333 332 330 330 330 329 329 329 329
291 295 298 295 290 291 303 309 309 309 308 309 307 308 309 308 310 312 310 308 307 309 311 311 310 311 313 315 316 317 319 321 321 321 320 322 327 329 331 331 333 332 332 332 332 332 334 338 341 341 341 343 343 338 337 336 336 337 337 336 336 336 336 335 335 335 333 330 330 331 332 334 335 334 334 333 333 332 332 331 330 330 329 329 329 330 329
292 293 293 290 291 301 310 310 309 314 311 309 309 306 307 308 309 309 308 308 308 309 310 311 312 313 314 315 316 317 319 320 320 320 321 323 326 326 328 330 331 333 333 333 333 333 336 337 339 341 342 342 341 336 335 335 334 334 335 335 335 335 335 334 335 334 333 330 330 331 332 334 335 334 334 333 332 332 332 331 330 330 329 329 328 328 328
293 290 290 293 302 305 305 306 308 307 305 306 306 300 304 310 310 309 307 309 310 311 312 313 314 315 316 314 314 316 318 319 321 324 324 325 325 326 328 330 331 334 335 335 335 335 335 336 338 340 341 340 337 334 333 334 334 334 334 333 333 334 335 335 335 335 334 333 334 334 333 333 334 334 333 333 333 333 331 330 329 329 329 329 329 328 327
294 290 289 295 293 292 298 307 311 313 310 309 311 307 305 310 313 313 312 311 311 312 312 314 315 317 314 310 311 315 316 319 321 321 324 322 323 323 325 326 325 330 332 335 337 337 336 336 337 337 338 338 334 332 332 333 333 333 333 332 332 334 335 335 334 334 335 335 334 333 332 332 334 334 334 334 333 333 331 330 329 328 328 327 327 327 327
296 292 289 288 289 294 302 305 310 313 313 310 310 307 300 310 313 313 312 311 312 313 313 313 314 312 307 306 310 315 315 318 322 321 323 325 326 327 327 327 324 331 335 336 337 338 337 336 337 337 336 334 333 331 332 332 333 331 330 330 331 333 332 333 333 334 335 336 334 333 330 331 335 335 334 334 334 332 331 330 329 327 329 327 326 325 328
296 293 290 292 296 300 306 309 312 313 315 312 306 296 294 309 314 314 314 313 311 310 312 313 311 307 304 305 313 317 318 321 320 322 324 325 326 330 335 337 332 334 337 337 334 335 336 337 336 335 334 333 333 332 331 331 331 330 330 331 331 331 331 332 333 335 335 335 333 333 332 334 336 336 336 331 329 328 329 328 328 327 328 325 323 323 324
298 298 295 296 301 308 310 310 311 312 314 305 296 290 299 311 313 313 314 313 313 313 312 313 310 311 312 315 317 317 320 320 320 320 323 326 328 332 336 336 340 335 335 336 336 336 337 336 335 334 333 332 332 332 331 329 330 331 330 330 330 331 332 333 333 335 336 334 332 332 332 334 335 333 329 327 328 328 328 328 327 325 325 325 323 323 324
296 296 294 295 299 306 310 312 311 313 305 295 297 306 310 313 313 314 314 313 313 314 313 312 312 313 316 318 318 320 321 320 319 320 321 329 335 337 338 336 332 330 330 330 330 332 331 334 335 334 333 332 331 330 328 327 329 330 330 330 330 331 332 333 333 334 334 333 333 333 334 334 330 329 327 328 330 330 328 327 325 324 323 322 320 322 323
299 296 294 290 291 301 312 310 310 312 301 301 308 313 314 318 315 316 315 315 315 316 314 315 315 316 317 318 318 320 321 321 322 323 323 321 327 331 331 331 331 330 327 328 329 331 332 332 332 332 331 331 330 330 328 328 330 331 331 330 331 332 333 333 333 333 333 332 332 332 331 331 329 328 328 329 327 326 323 323 322 321 322 322 321 321 320
294 294 291 291 299 305 312 310 306 308 310 313 314 314 312 315 316 316 316 317 317 318 318 317 317 318 318 320 320 320 320 321 320 321 322 324 328 331 335 334 331 330 326 327 328 328 330 330 330 330 331 331 331 327 324 328 331 332 332 332 332 331 331 332 332 332 332 332 330 329 331 330 328 326 326 326 326 324 323 322 320 320 321 320 318 318 316
300 298 300 305 306 310 311 313 311 311 313 314 314 313 312 311 312 314 314 314 316 317 317 318 319 318 319 319 321 320 320 320 320 319 320 321 323 328 331 332 331 328 327 326 328 327 328 329 329 329 330 329 328 326 327 330 331 331 331 332 332 331 330 331 331 332 331 329 329 329 330 330 327 326 326 326 324 324 322 320 320 320 319 319 317 316 315
311 310 310 314 310 309 310 312 313 313 313 314 314 313 311 311 312 313 312 313 313 313 314 313 314 318 318 318 320 322 322 322 323 324 321 320 321 326 329 329 329 326 326 327 327 326 326 327 327 328 329 329 327 326 329 331 330 331 331 331 330 330 330 330 330 331 329 329 329 328 329 328 327 327 326 325 323 321 319 319 320 319 318 317 316 315 314
300 297 308 311 310 310 310 311 312 314 314 313 314 313 312 312 313 313 313 313 313 314 314 312 312 313 315 316 318 321 322 322 323 324 323 321 321 322 324 328 330 326 327 326 327 327 326 326 326 327 328 329 329 329 329 330 330 330 329 329 329 327 327 327 328 329 327 326 326 326 326 326 325 325 322 322 322 322 321 321 319 319 318 317 315 314 313
300 303 310 314 314 310 312 310 310 310 311 312 314 315 318 317 317 315 315 316 315 317 314 313 312 312 313 313 315 319 320 321 321 321 323 322 322 322 324 327 327 325 325 326 327 326 325 325 326 326 326 326 325 323 323 325 326 327 327 324 322 322 323 324 325 326 328 330 321 316 315 317 321 321 321 322 322 322 321 320 319 318 317 317 314 314 313
309 312 313 314 311 310 311 313 312 311 311 311 311 312 313 313 313 314 315 316 314 315 314 313 312 311 312 313 315 318 319 320 321 321 323 323 323 322 325 325 325 324 324 325 325 325 325 325 325 323 322 322 324 324 324 325 324 323 323 326 325 324 325 327 328 329 324 322 318 317 314 310 306 305 306 310 314 310 306 307 314 319 317 316 316 315 314
302 303 305 311 303 301 305 310 312 311 312 312 313 314 313 314 314 313 313 313 314 313 314 313 312 311 312 313 315 318 320 320 322 323 324 325 326 325 324 326 326 325 325 325 325 325 325 324 321 319 319 319 321 323 325 325 325 325 325 324 324 324 323 320 320 322 323 323 319 316 314 311 309 306 303 296 298 308 308 306 302 299 307 312 315 313 311
302 310 311 309 308 307 308 310 311 311 312 311 311 310 311 312 314 313 312 310 310 310 311 312 311 311 312 313 316 318 321 322 324 325 325 326 326 324 324 323 321 322 324 327 326 326 324 321 319 319 318 318 318 319 321 322 322 321 321 322 323 323 324 322 321 321 322 322 319 316 315 312 309 308 305 304 294 295 299 300 296 293 296 300 303 307 312
314 316 313 311 306 304 306 308 309 310 311 311 310 310 310 310 309 310 309 309 308 308 308 310 311 311 313 313 314 315 318 321 323 324 326 327 325 325 325 323 321 323 325 326 326 325 322 320 319 319 319 319 320 321 322 322 321 320 320 321 320 320 322 323 324 324 322 321 317 313 311 310 310 310 308 306 305 298 294 295 295 293 293 295 296 298 301
306 312 308 308 308 307 308 309 309 310 313 313 311 311 309 309 310 310 310 309 309 309 309 310 311 312 313 312 313 314 316 320 324 327 329 327 328 324 323 322 321 323 324 325 325 324 322 320 319 320 319 320 322 323 323 322 322 321 320 320 319 318 318 322 322 328 322 318 316 313 312 311 311 310 309 309 307 305 304 297 293 291 292 293 294 294 293
310 309 310 309 309 308 309 310 310 311 312 309 309 310 317 320 313 311 309 309 309 309 309 310 311 312 314 312 312 313 314 316 322 327 325 325 326 324 323 322 322 322 322 323 324 323 321 321 320 320 320 320 320 321 323 321 320 320 319 318 317 316 316 318 317 319 319 317 315 313 313 313 312 310 313 311 309 307 306 304 304 300 295 292 291 292 292
309 312 311 307 306 306 308 306 307 309 310 310 308 308 308 310 315 311 309 310 310 311 310 311 311 311 311 311 313 313 313 315 315 316 320 323 326 325 324 324 323 322 323 322 322 326 327 325 323 321 320 322 323 323 322 321 320 319 318 317 316 324 328 327 317 318 318 317 315 313 313 313 314 315 314 313 313 310 308 307 305 304 303 302 294 290 296
307 309 309 305 304 306 309 309 308 308 308 308 308 308 308 308 307 307 307 307 307 308 309 310 311 310 309 309 309 308 310 309 310 312 314 318 322 321 323 322 322 322 322 323 323 325 325 323 323 322 321 321 323 323 322 321 320 319 318 318 319 318 321 326 324 320 318 318 316 315 314 313 314 315 316 316 313 311 307 309 308 306 305 301 301 300 294
305 306 308 308 308 308 308 307 307 306 306 307 308 307 307 306 306 306 305 306 306 306 306 306 308 311 309 309 309 308 309 308 309 310 312 316 321 320 322 323 323 323 323 323 323 324 324 322 322 322 321 322 322 323 323 322 321 321 321 321 322 322 322 321 320 319 318 317 317 316 317 316 315 314 315 315 315 311 310 310 310 308 304 302 302 303 303
306 307 306 305 306 306 305 304 304 305 305 305 305 305 306 305 305 304 305 305 305 305 305 305 304 306 308 307 308 308 309 309 309 310 314 318 320 319 322 323 323 322 321 320 321 321 322 322 322 322 323 324 324 324 325 323 322 321 321 321 323 322 320 320 319 318 317 316 317 322 318 315 314 315 315 314 314 313 312 310 311 309 304 303 306 302 302
305 306 305 305 305 304 304 303 303 304 305 304 305 305 305 305 304 304 304 304 305 305 304 304 304 304 305 305 305 307 309 308 308 310 314 318 320 319 322 323 322 320 320 321 322 322 322 323 322 323 322 324 325 325 324 323 321 321 319 318 319 321 322 322 321 317 316 318 318 317 317 317 316 316 316 314 314 313 311 311 311 309 307 304 305 304 303
303 304 304 304 303 303 303 303 303 303 303 304 304 304 303 303 303 303 305 306 305 305 304 304 303 304 304 304 306 307 306 307 309 313 316 317 317 315 319 321 323 327 323 323 323 324 322 321 320 320 320 323 323 322 322 322 321 320 318 324 320 318 320 321 318 318 319 321 318 317 318 316 315 316 317 316 315 313 311 310 309 308 306 305 305 304 303
302 301 300 301 302 302 302 302 302 302 302 303 302 303 303 303 304 306 305 307 307 306 304 304 304 304 304 305 305 306 307 308 311 313 315 313 313 314 314 317 318 320 322 323 323 323 322 321 319 318 319 321 321 321 321 321 319 319 317 317 318 320 323 319 318 318 321 318 315 315 316 315 315 317 316 317 316 314 312 312 312 312 310 307 305 302 303
301 300 300 301 300 300 300 301 301 302 303 303 303 303 304 304 305 305 307 309 307 306 305 305 305 305 305 305 306 307 308 309 310 312 313 311 313 314 316 317 316 317 317 318 318 318 319 318 317 319 321 323 323 323 322 321 319 318 318 318 318 316 316 316 319 320 319 318 315 319 316 315 313 313 315 315 313 313 314 314 314 314 311 308 303 303 300
304 304 304 304 303 304 306 302 301 302 303 302 303 303 304 303 305 306 313 311 306 306 306 306 306 306 306 306 306 308 309 308 309 311 311 312 312 312 315 316 316 316 316 317 316 317 319 319 319 321 322 323 322 322 322 320 319 318 317 318 320 318 318 318 316 317 317 316 314 312 311 312 313 317 317 314 312 312 313 314 314 313 308 305 303 302 300
305 304 304 303 304 305 303 303 303 304 303 302 303 304 304 304 307 307 306 306 307 308 307 307 307 307 307 306 307 309 311 311 310 309 310 311 311 313 315 315 315 315 316 317 319 321 324 325 329 328 323 322 320 320 320 320 320 319 319 318 318 318 318 317 317 317 314 312 312 312 311 315 316 314 314 312 312 312 312 312 312 310 306 304 303 302 302
305 304 303 303 303 302 303 303 304 304 304 304 304 305 305 305 306 305 308 308 308 308 308 307 307 307 307 307 308 311 313 312 311 312 313 312 312 313 314 315 315 316 318 317 318 322 324 327 331 329 323 320 320 321 325 326 317 317 316 315 315 316 314 312 312 311 312 313 313 313 315 313 312 312 314 310 310 309 310 309 310 306 304 305 304 304 303
305 305 304 304 304 304 303 304 306 306 305 305 305 306 306 306 306 306 307 308 308 308 309 309 308 308 308 309 309 311 311 310 312 312 312 311 311 313 313 314 314 313 313 314 317 319 322 327 327 322 318 319 319 320 325 328 324 315 313 314 314 315 314 311 312 312 312 310 315 312 312 311 309 307 308 306 308 309 310 310 309 307 306 305 304 304 304
305 305 305 305 305 304 304 305 306 305 306 304 304 304 308 309 309 308 307 307 307 310 311 310 309 308 307 307 309 311 311 311 314 313 312 311 313 312 312 312 313 313 313 314 317 320 324 322 320 317 317 317 318 319 324 326 321 311 311 314 312 312 312 312 311 311 310 310 309 308 307 308 307 307 306 305 306 310 312 311 308 308 305 304 303 303 303
305 305 305 306 304 304 304 303 304 304 306 306 305 305 307 309 307 306 305 306 307 311 309 309 309 309 309 308 310 311 312 313 312 313 313 312 312 312 312 313 314 316 321 325 319 318 323 324 317 313 313 314 315 315 319 319 316 310 307 307 310 311 310 312 309 308 309 308 310 316 308 308 307 307 308 307 307 308 308 309 308 307 305 304 303 302 304
305 304 305 304 305 304 304 304 304 303 303 305 304 305 306 307 306 305 306 306 307 308 307 307 308 310 308 309 311 313 312 312 312 311 311 312 311 310 309 309 313 316 319 319 319 320 322 317 313 311 312 312 314 319 314 316 307 304 304 305 306 307 308 309 310 310 308 309 312 309 308 307 307 308 307 307 307 306 307 308 308 307 306 305 303 303 303
306 305 305 304 304 304 304 304 305 304 304 304 306 308 307 308 307 307 307 307 307 308 307 308 315 313 309 309 312 313 311 311 312 312 312 311 309 308 309 309 313 315 323 324 323 320 315 314 314 316 311 312 314 318 316 311 302 302 303 305 305 308 307 306 308 308 308 307 306 304 307 306 305 305 306 308 305 306 306 306 306 306 305 305 304 303 302
306 305 305 305 304 304 304 304 304 305 305 305 306 306 306 306 306 307 308 307 308 308 309 308 310 313 309 306 308 308 310 310 310 310 310 311 312 312 308 309 311 312 323 319 313 309 310 309 309 309 318 316 314 318 315 302 301 301 303 305 308 306 305 305 303 304 303 301 301 301 302 304 303 305 306 306 305 306 306 305 305 305 305 303 302 301 301
307 306 305 305 305 306 305 304 304 304 303 305 306 305 305 305 306 306 308 307 309 309 310 309 309 310 311 309 307 308 308 308 308 309 308 309 311 311 311 311 311 318 323 316 311 310 309 310 309 316 320 320 319 316 306 300 300 300 300 301 303 304 304 302 302 301 300 302 302 299 300 305 304 302 304 304 305 304 304 305 304 304 303 302 301 301 301
306 305 306 306 306 306 304 303 303 303 305 306 306 305 306 305 305 306 307 307 309 311 312 310 310 311 310 309 307 307 308 309 309 308 307 307 307 308 311 319 315 318 319 318 310 309 308 308 316 321 322 319 316 313 298 297 297 299 300 300 301 302 303 301 301 301 302 301 301 300 302 301 300 301 302 303 307 305 305 305 305 304 304 302 301 301 300
306 305 306 313 307 304 304 305 306 306 305 305 303 305 307 305 305 306 307 307 307 308 308 309 310 311 310 310 309 308 309 310 311 311 309 308 307 307 310 320 315 319 320 317 310 309 307 318 319 320 318 316 313 305 297 302 303 299 299 299 301 304 302 301 302 300 301 301 300 298 297 297 297 297 298 300 302 304 305 307 306 304 303 303 301 301 300
305 305 305 304 305 305 305 305 306 305 304 303 304 304 307 307 307 307 307 307 307 308 308 309 310 311 310 310 309 307 307 308 309 310 311 311 314 316 319 322 322 322 318 311 309 308 310 315 317 317 316 315 313 296 298 297 297 297 299 298 300 300 300 298 298 298 298 298 301 305 308 304 299 295 300 302 300 303 303 304 304 304 303 304 303 304 303
305 303 303 304 305 306 304 303 304 302 302 302 302 304 306 307 307 307 307 306 307 307 308 308 309 310 311 311 310 309 309 309 307 306 306 309 309 312 314 311 315 321 317 317 315 316 318 317 314 316 317 315 308 295 297 297 298 298 297 299 298 295 295 295 296 295 296 297 301 296 294 293 293 294 297 297 296 297 299 301 302 302 301 302 302 301 301
304 304 305 306 305 305 304 304 304 304 301 303 305 304 306 307 308 306 306 307 306 306 307 308 307 307 308 313 314 310 310 311 308 307 306 309 309 310 310 317 322 321 315 311 309 309 316 312 312 313 314 316 296 295 296 297 301 302 302 299 299 299 298 296 295 294 293 295 296 297 296 296 294 293 295 296 298 298 300 300 300 300 300 300 300 301 301
305 305 304 304 304 304 303 302 302 301 301 304 304 304 305 306 307 306 306 307 307 313 310 304 305 304 305 305 306 308 309 312 312 310 310 310 309 308 312 312 312 317 315 308 308 308 315 313 311 314 314 304 296 298 297 297 298 301 301 303 303 300 301 301 303 301 297 298 297 298 298 297 295 297 300 298 297 299 298 299 298 301 303 303 300 300 300
305 306 306 308 307 307 305 303 303 305 303 304 304 306 308 307 306 310 309 309 307 308 308 307 306 304 303 304 306 307 309 310 312 318 311 309 309 314 315 313 313 316 313 311 308 307 306 305 302 307 311 306 298 299 300 300 299 301 305 302 302 302 302 301 300 298 297 298 297 297 297 297 296 295 295 296 298 298 298 300 299 299 300 299 300 299 299
305 305 306 306 304 304 305 305 305 304 305 306 305 305 305 305 306 308 308 316 309 308 306 304 305 304 303 303 308 307 307 309 311 311 317 313 311 308 313 318 311 313 312 309 306 304 304 305 308 310 311 305 300 299 305 308 303 301 302 304 305 302 304 303 302 299 299 299 299 297 299 298 296 296 297 296 298 298 299 298 298 298 299 297 298 298 297
Wind_Speed
14 14 14 8 2 3 5 9 11 12 11 10 13 11 8 12 11 12 7 8 8 9 11 13 14 15 15 13 14 18 16 9 6 7 9 11 13 14 15 16 13 12 13 12 14 14 14 14 14 15 13 13 12 11 11 11 12 14 14 14 15 16 15 15 15 16 15 13 11 12 11 10 11 11 10 9 9 8 7 7 6 7 7 7 7 7 6
13 12 15 15 13 8 5 5 9 14 15 15 16 13 9 16 7 11 10 12 14 10 12 14 16 15 16 13 4 4 5 10 11 10 11 13 15 15 17 15 13 12 14 13 13 14 13 14 16 13 13 13 13 14 14 14 14 14 12 14 15 16 16 15 14 15 14 12 12 11 10 11 10 9 9 9 8 7 7 7 7 6 6 6 7 7 6
10 11 13 12 11 13 13 10 9 11 11 14 15 11 7 9 4 2 5 11 12 9 7 14 11 3 6 7 7 12 11 8 10 12 13 15 15 15 13 11 12 11 11 11 9 9 12 12 14 15 14 15 14 14 14 13 14 14 15 15 15 15 16 13 13 14 14 14 13 14 13 11 9 9 9 8 8 8 7 7 7 6 6 7 7 6 7
6 8 12 13 9 7 9 12 13 10 6 6 4 5 6 8 9 5 7 4 7 10 3 1 3 7 9 11 10 9 8 10 12 13 14 13 12 12 12 11 8 7 7 7 9 12 12 12 12 12 13 13 13 14 13 14 14 11 13 15 16 15 11 12 14 17 16 14 11 5 3 1 4 8 8 8 8 8 7 7 7 6 7 8 8 7 7
7 8 9 11 6 2 6 10 11 10 5 5 4 2 4 1 4 7 7 9 10 6 3 4 3 7 11 11 10 8 6 9 12 13 12 11 11 11 9 9 9 9 10 11 11 10 8 10 12 13 13 11 12 14 10 10 9 10 14 15 14 11 9 10 10 6 6 4 7 7 2 7 9 8 7 7 8 8 9 9 6 7 9 8 8 7 7
7 6 7 7 6 9 7 4 4 7 8 10 9 2 0 1 4 5 6 7 3 5 8 10 6 8 12 16 15 11 13 12 6 6 7 9 9 7 6 7 7 8 6 5 7 9 10 10 11 9 6 10 9 6 10 12 11 12 12 10 6 6 7 7 9 11 7 8 8 10 9 9 8 8 7 9 10 9 8 6 8 9 8 9 8 7 7
6 4 9 8 9 6 3 5 4 6 9 16 15 6 4 4 2 1 0 2 2 8 13 16 15 9 1 3 3 2 4 8 11 10 7 6 6 8 8 7 7 7 10 9 8 6 7 9 7 5 7 9 8 8 8 7 7 7 7 6 6 8 10 11 14 17 17 15 12 10 6 4 7 8 9 9 8 8 8 9 9 9 9 8 8 5 4
4 2 6 8 4 2 2 1 4 2 10 7 13 10 7 7 7 1 2 4 3 5 3 3 6 8 6 5 5 4 3 3 6 7 8 8 8 9 9 11 10 10 10 11 12 13 10 6 7 8 11 9 7 7 5 8 6 6 6 7 8 9 11 13 14 16 19 17 12 7 5 6 6 9 10 10 11 9 8 8 7 6 6 6 4 4 5
7 5 4 3 3 3 2 3 3 4 2 3 11 5 3 3 5 4 3 3 4 4 1 5 8 9 8 7 5 3 1 1 2 8 11 10 10 9 9 9 10 11 9 9 9 4 3 6 7 10 6 6 8 8 8 7 8 8 9 10 11 12 14 15 15 13 8 10 7 5 5 6 9 10 10 11 11 8 8 8 7 7 8 5 5 6 6
4 7 5 2 2 4 3 2 4 1 5 8 3 12 0 3 9 5 2 7 7 7 4 2 5 10 13 8 3 5 7 2 3 2 1 4 4 4 4 3 1 3 4 5 5 7 6 6 6 4 5 7 6 6 6 5 6 7 9 10 11 12 14 14 11 10 10 12 12 8 6 9 11 11 15 12 11 8 9 9 8 8 6 5 4 3 3
4 3 7 3 3 2 2 8 9 10 8 6 7 8 2 5 10 8 5 6 5 10 8 3 2 9 9 5 1 6 6 1 0 4 3 2 1 4 6 9 8 7 7 7 6 5 6 6 6 7 8 9 8 8 8 7 7 9 9 10 13 14 11 10 10 9 10 9 9 9 11 15 13 14 14 13 10 5 6 6 6 4 5 6 5 5 5
4 3 4 2 1 1 4 9 11 12 10 3 7 7 3 8 11 6 8 8 6 6 7 10 12 9 6 6 6 6 3 1 4 5 5 4 4 3 4 4 2 6 5 6 4 6 8 9 8 9 9 10 10 10 10 9 10 12 15 17 11 10 12 14 13 11 8 7 6 8 12 14 14 15 6 5 10 3 3 4 5 5 5 5 3 4 6
7 7 1 2 2 2 5 8 12 12 5 7 9 6 2 4 6 5 11 10 8 10 11 10 11 3 5 3 2 3 4 11 10 8 5 3 4 5 4 3 4 5 2 5 10 12 10 9 9 9 9 9 10 10 9 10 11 9 9 8 11 13 13 11 10 7 7 13 12 13 16 16 10 3 6 6 8 8 6 4 5 5 6 4 3 3 3
4 2 5 0 1 3 3 11 9 6 3 6 7 2 1 2 5 5 8 10 9 12 11 9 7 2 1 0 2 9 10 5 5 5 5 5 5 4 3 5 4 3 1 0 1 2 3 8 9 9 10 10 9 8 4 7 9 5 3 3 5 7 9 11 9 9 8 8 13 14 11 4 2 4 5 7 8 7 5 6 7 7 7 6 3 1 4
2 4 6 2 2 3 8 14 6 7 7 3 3 5 5 3 4 8 9 8 7 9 11 8 7 6 7 9 8 7 8 7 7 6 5 5 4 2 3 3 2 3 1 2 1 5 5 4 3 2 0 2 2 7 10 7 8 11 10 8 6 4 6 7 9 9 8 10 5 2 1 2 2 1 2 3 5 5 7 6 2 2 4 6 7 8 6
4 4 3 2 3 7 13 3 7 3 3 6 6 7 7 4 5 7 9 9 6 7 10 9 10 8 8 8 8 8 8 8 7 6 6 5 4 3 1 2 3 2 2 5 4 3 3 4 4 3 4 5 7 10 8 6 9 9 9 9 10 6 5 7 5 3 1 4 3 1 4 6 7 7 7 8 10 11 13 13 10 8 5 5 5 5 5
2 3 4 2 2 4 6 10 9 7 8 8 4 8 6 5 6 3 9 8 7 6 7 11 10 11 9 7 5 7 5 6 6 7 6 7 5 2 0 1 2 4 5 5 6 6 4 5 4 6 7 9 8 7 4 8 9 10 8 7 8 8 8 6 3 2 2 1 3 3 6 8 7 6 7 10 10 9 9 8 7 6 5 5 5 5 6
5 8 4 1 3 2 3 8 7 11 9 8 6 7 9 5 4 5 8 6 8 9 7 11 9 9 6 9 9 8 8 8 7 6 7 7 6 4 2 2 2 4 5 5 6 8 7 6 7 6 6 8 9 5 5 8 9 10 10 11 10 10 9 8 6 6 5 3 5 5 6 4 7 10 12 10 8 7 6 6 5 6 6 5 5 6 6
8 2 3 3 2 4 4 11 9 10 9 8 7 8 6 4 4 4 4 5 7 9 9 10 8 8 7 9 7 5 6 8 7 7 6 5 6 8 9 3 2 4 6 7 7 7 8 5 8 8 9 9 9 8 10 10 10 11 11 12 11 10 9 7 7 8 7 6 7 1 0 2 3 3 4 5 6 7 5 6 6 6 6 6 6 5 5
6 8 5 1 4 4 6 4 9 11 8 9 7 7 8 7 7 4 4 5 10 7 8 5 8 8 8 9 8 7 5 4 4 5 5 5 6 3 1 1 1 4 6 6 7 7 8 6 7 9 11 11 12 13 12 11 11 12 12 12 12 11 10 6 4 3 4 3 4 4 5 4 1 2 1 4 6 7 8 8 7 6 6 6 6 6 5
6 10 5 4 4 10 9 9 8 6 8 10 10 9 9 8 10 10 11 11 9 9 7 5 7 9 7 5 4 4 3 4 4 5 5 3 4 6 3 3 3 5 6 7 6 8 7 6 9 11 11 11 12 13 12 12 14 14 12 11 10 8 7 8 7 5 5 4 3 3 2 3 4 5 4 4 1 4 5 3 0 7 8 6 5 5 6
5 5 5 5 7 6 3 6 3 3 5 10 10 11 12 10 9 7 7 6 6 7 7 7 7 8 5 5 4 3 1 1 2 4 6 6 6 5 2 1 5 5 6 10 10 10 8 8 11 12 12 10 9 9 10 10 12 14 12 11 10 9 9 9 10 9 6 6 7 8 8 9 8 5 6 6 5 2 3 7 9 8 4 4 5 5 5
6 3 4 8 11 7 2 2 3 4 5 11 12 11 11 10 6 4 7 8 10 10 9 9 10 9 9 9 8 8 6 4 4 6 5 7 6 1 0 3 4 7 8 8 10 10 10 10 11 12 11 11 10 10 10 9 12 13 12 11 10 9 9 7 8 8 9 8 9 9 8 6 6 8 5 4 9 10 8 7 7 8 8 9 9 6 5
7 3 4 6 9 10 4 4 5 5 4 10 11 10 10 10 9 8 8 7 8 6 7 8 7 6 9 9 10 12 12 9 6 3 3 4 2 2 3 4 6 8 9 10 12 13 10 11 11 11 11 10 10 10 11 11 9 10 9 10 10 10 10 9 9 8 7 6 6 6 5 5 6 7 6 6 4 7 9 8 9 9 9 9 9 9 7
9 3 4 5 9 10 8 8 7 6 4 7 10 9 10 10 8 7 7 5 5 7 6 7 7 7 8 9 9 9 8 9 9 8 6 3 1 2 3 5 8 10 10 9 9 10 10 9 9 8 7 5 4 5 4 5 8 9 8 6 7 7 5 5 7 7 6 6 6 6 6 6 6 5 7 7 7 3 4 7 9 9 10 9 9 9 10
10 10 9 10 12 8 1 7 15 12 10 7 8 7 7 8 7 6 6 5 5 5 6 5 7 8 7 8 8 8 9 10 9 8 7 7 5 3 3 1 2 3 1 3 6 7 9 11 11 8 7 7 5 3 3 4 4 5 5 4 4 4 5 5 3 3 4 6 6 6 6 6 6 5 4 4 5 6 5 3 3 6 7 7 6 8 9
5 2 6 16 15 12 13 10 5 5 4 5 7 6 4 4 6 5 4 5 5 5 6 4 4 4 6 6 6 5 5 7 8 10 7 4 3 0 2 4 6 7 7 7 7 8 10 10 10 3 4 5 3 2 3 4 4 4 3 3 2 5 8 5 4 4 3 4 5 5 5 5 5 4 5 4 4 6 6 6 6 5 4 2 3 5 4
13 13 8 11 8 8 6 5 3 5 8 9 8 7 3 2 4 7 9 8 7 5 6 6 6 7 8 6 7 10 10 10 10 9 9 7 4 1 4 8 10 9 7 7 7 7 11 11 8 6 4 4 3 3 4 4 4 4 4 4 4 5 4 5 4 5 4 5 6 6 7 6 5 6 5 4 4 4 3 3 4 4 2 1 1 2 4
11 11 10 9 8 8 6 3 7 10 8 6 6 7 9 10 9 9 8 7 5 5 7 7 4 3 4 4 4 5 6 7 8 9 10 9 4 2 3 9 9 10 9 9 9 8 5 4 5 6 7 5 5 5 5 5 5 6 6 6 5 4 4 3 4 4 5 5 6 6 6 6 6 5 3 3 3 4 4 4 4 3 4 3 3 2 1
8 6 7 6 4 5 11 12 8 7 8 6 8 8 7 8 9 7 5 5 4 5 4 3 3 3 2 3 3 4 5 6 7 7 8 8 6 2 3 6 8 7 4 4 5 6 6 5 7 8 7 5 6 6 7 6 5 5 6 7 7 7 6 5 4 5 6 6 6 6 5 4 4 5 5 5 5 4 4 5 5 5 5 5 4 6 6
5 7 9 8 9 9 10 6 5 5 6 7 6 8 9 8 7 7 7 6 5 5 5 4 4 3 3 3 4 4 4 5 6 6 6 7 7 3 4 6 8 8 8 8 7 5 6 7 7 7 5 4 5 5 5 6 6 5 4 4 4 6 9 9 6 6 5 5 5 5 5 5 4 5 4 3 4 6 5 4 5 5 5 5 5 6 6
2 7 11 9 7 8 9 8 8 8 6 5 8 9 6 6 5 5 5 6 5 4 5 5 6 6 5 4 3 4 4 5 7 7 5 5 5 2 4 5 8 9 8 8 8 8 8 7 5 4 3 4 5 6 6 6 6 6 5 5 5 5 5 7 4 4 3 4 5 6 6 7 6 5 5 6 7 6 6 6 6 5 5 6 6 6 4
11 10 13 13 11 11 10 7 8 8 8 8 6 4 4 4 3 3 3 3 4 4 4 5 5 5 6 5 4 5 5 5 6 6 5 4 4 3 1 2 3 2 6 7 8 8 7 7 4 1 3 4 4 3 3 5 5 6 5 5 5 5 5 4 5 4 3 3 4 5 6 4 5 5 7 7 7 6 6 6 6 6 6 6 6 4 4
9 6 3 4 4 5 6 8 6 6 6 5 5 5 6 6 4 4 4 4 4 5 4 5 6 5 5 5 6 5 5 6 8 8 6 4 3 4 5 5 5 6 6 6 6 8 8 6 4 5 5 6 6 6 6 5 6 5 5 6 6 6 5 4 5 4 4 3 2 1 2 2 3 3 2 2 1 2 6 6 6 5 5 4 4 3 4
6 6 5 5 5 4 4 3 4 4 4 5 6 6 5 5 4 4 5 5 5 5 6 6 6 6 5 5 5 5 4 5 5 6 2 1 2 3 4 7 7 7 8 7 5 6 7 3 1 4 6 7 7 6 6 6 6 6 5 6 6 5 5 3 3 3 2 2 2 3 2 2 3 3 4 6 6 3 2 3 3 4 5 5 5 4 4
7 6 6 6 5 5 5 4 4 3 3 3 3 3 4 4 4 5 6 7 6 7 7 8 7 7 8 7 7 7 7 5 3 2 3 2 3 4 7 7 7 8 8 7 3 2 7 7 10 10 5 7 7 5 4 6 6 7 6 7 6 5 4 3 2 2 4 5 4 3 3 6 6 2 1 1 3 4 5 4 4 4 5 5 5 5 5
4 3 3 3 4 4 4 4 4 4 4 3 3 4 4 4 4 4 4 5 6 6 7 7 7 8 9 9 8 8 7 6 3 4 4 3 1 4 6 5 4 5 5 6 3 3 4 6 11 14 8 7 8 7 6 10 7 6 6 6 6 5 4 3 3 5 5 5 5 4 3 3 2 3 3 4 4 4 4 5 3 3 4 5 5 6 5
3 4 4 4 3 4 4 4 4 3 3 3 3 3 3 4 4 4 4 4 5 5 5 5 6 7 8 9 9 9 7 2 3 4 4 3 3 5 4 5 4 4 6 3 4 6 5 7 13 9 8 8 7 4 6 13 10 7 6 5 4 4 4 4 4 5 6 5 3 3 3 3 4 4 2 3 4 3 4 4 5 5 5 5 5 5 5
6 4 4 4 3 3 3 4 4 3 3 3 3 3 3 4 4 4 5 5 5 4 5 6 7 7 7 7 7 6 4 2 4 5 3 3 3 3 3 3 2 1 3 2 3 5 7 8 8 9 8 8 7 5 6 12 11 7 6 5 4 3 3 3 4 4 3 2 2 2 2 2 2 2 3 3 4 4 4 5 5 4 5 6 6 6 5
5 5 5 4 4 3 3 3 3 3 3 2 2 3 4 4 4 4 4 5 5 5 5 6 7 7 7 6 5 5 4 5 4 0 5 5 4 6 6 5 3 3 6 9 4 3 8 13 10 7 6 5 6 6 5 8 8 5 6 4 3 3 3 3 3 3 2 2 2 3 2 3 3 3 3 3 3 4 5 5 5 5 5 5 6 5 5
4 4 4 4 4 3 3 3 3 3 3 3 3 3 3 2 3 3 4 5 6 5 5 4 5 5 4 4 5 3 2 2 3 4 4 3 5 4 4 4 0 3 4 6 1 1 8 6 5 7 5 6 5 6 7 8 7 6 6 5 4 4 3 3 2 2 2 3 2 3 4 3 3 5 4 4 4 5 5 5 6 6 7 7 7 6 6
3 3 3 4 3 3 3 3 3 4 4 4 4 4 4 3 3 4 5 5 6 5 6 6 8 5 2 2 1 3 4 4 4 4 5 4 1 3 4 0 1 1 5 6 6 5 4 5 4 6 6 5 5 10 10 6 6 6 5 4 3 3 3 2 1 1 1 2 2 1 1 2 3 3 3 4 5 5 5 5 6 6 6 6 7 7 7
3 3 3 3 3 3 3 3 3 3 4 4 3 3 3 3 3 4 5 5 5 6 7 5 5 6 3 2 2 3 3 1 2 3 2 2 3 0 3 3 1 2 6 6 4 3 5 4 5 4 7 6 6 12 10 6 5 6 4 3 2 2 3 3 3 2 3 3 2 2 3 4 5 5 5 6 6 6 6 6 6 6 6 6 6 6 7
2 1 2 3 3 3 3 3 3 3 4 5 4 4 3 3 2 2 3 4 4 4 5 6 5 5 3 0 1 1 1 2 3 3 3 4 4 1 1 2 2 5 10 5 5 5 5 5 5 8 12 12 12 10 5 5 4 4 3 3 3 3 3 2 2 2 2 1 2 1 1 1 2 4 5 5 6 6 6 6 6 7 6 6 6 7 6
2 2 2 3 3 3 3 3 3 4 4 4 5 4 3 2 3 2 3 3 4 4 4 4 6 5 4 1 2 2 1 1 1 2 3 1 1 2 0 3 2 2 5 7 4 4 5 5 7 11 9 11 10 9 5 5 4 4 3 3 3 2 2 2 3 2 1 1 1 1 1 1 2 3 5 5 6 6 6 7 7 7 7 6 6 7 7
2 1 1 2 2 3 3 4 5 4 3 2 3 2 2 2 3 3 3 3 4 4 4 4 4 5 5 3 1 2 1 2 3 3 3 3 2 3 2 4 3 4 8 9 4 5 4 6 7 9 9 11 9 7 5 4 4 4 4 4 2 1 2 2 2 3 3 3 3 2 2 1 1 2 4 5 6 6 6 7 6 6 6 7 7 8 8
2 2 1 2 3 3 3 3 3 1 2 4 5 6 5 4 4 4 4 3 3 4 4 4 5 5 3 2 0 2 1 0 1 2 3 4 4 2 3 6 7 9 7 5 5 6 5 5 6 9 10 10 9 6 6 6 5 4 4 3 3 3 3 3 3 4 3 2 2 1 1 0 1 2 2 2 3 5 5 5 6 6 6 6 7 7 7
3 3 3 3 3 3 2 2 3 4 3 2 2 4 4 5 5 5 4 3 3 3 4 4 4 4 5 3 0 3 4 5 2 3 3 3 2 1 2 3 4 8 8 7 7 6 9 9 9 9 9 9 6 5 5 5 4 5 5 3 3 2 1 1 1 3 3 3 2 2 3 3 3 3 3 3 3 3 3 4 5 6 6 6 6 7 7
2 3 4 3 2 1 3 3 3 3 4 2 3 4 4 4 5 5 4 4 4 4 3 3 3 4 4 4 4 2 2 3 2 1 1 3 3 4 3 2 7 9 6 5 5 5 7 10 10 9 10 8 5 6 5 4 3 3 2 3 3 2 2 2 4 3 3 4 4 4 4 3 3 3 5 4 4 3 3 4 5 5 6 6 6 6 7
3 2 3 4 4 4 4 3 6 6 3 3 4 5 3 4 6 7 4 4 5 5 5 5 4 4 4 5 5 4 2 3 3 3 3 3 3 3 3 3 3 6 7 6 5 6 7 11 10 9 7 5 6 5 5 4 4 3 3 3 3 3 3 3 4 4 4 4 5 4 4 4 4 4 3 3 4 5 4 4 4 5 7 6 6 6 6
5 5 5 4 5 4 3 3 4 5 5 4 4 4 3 3 5 5 6 6 5 5 6 6 6 5 4 4 4 3 4 3 3 3 2 3 2 4 4 4 4 5 5 6 6 7 7 6 7 6 6 6 6 5 5 5 5 5 4 4 4 4 4 3 3 3 4 4 4 4 4 4 4 4 4 4 4 4 4 4 4 4 5 6 6 7 7
3 3 5 4 3 4 4 5 4 4 4 4 4 3 3 4 4 5 6 7 4 4 5 4 7 6 2 2 3 4 4 3 3 3 3 3 3 4 4 5 4 5 6 6 6 6 6 7 6 7 7 6 6 6 6 7 5 5 6 4 5 5 4 4 4 4 4 4 5 5 5 6 4 4 4 3 3 4 3 4 4 4 4 4 5 5 5
Wind_Direction
217 210 225 217 172 210 223 199 188 196 194 187 184 200 182 145 189 204 231 174 189 218 208 208 208 198 201 198 202 205 199 168 168 179 184 191 199 204 209 215 209 207 207 207 207 207 209 209 208 209 207 208 208 209 209 202 197 196 190 187 189 191 190 187 183 182 182 183 181 189 186 183 189 192 188 190 196 200 203 206 207 208 206 203 207 215 221
220 218 222 234 233 246 238 243 226 196 185 190 193 199 166 177 189 197 186 172 202 200 208 208 211 205 198 203 175 87 144 188 183 179 186 195 201 204 209 210 208 208 210 209 209 207 209 208 210 206 207 207 206 205 204 199 198 199 183 195 195 194 192 189 183 182 180 177 183 183 182 189 193 192 187 189 195 204 210 209 210 209 205 204 208 209 211
228 220 218 230 231 229 248 240 229 232 202 194 197 186 174 194 211 195 156 177 215 242 216 208 213 146 61 79 154 187 190 174 179 183 192 199 204 207 207 207 209 209 210 213 212 211 215 212 210 209 207 207 205 207 207 203 203 197 191 197 199 197 196 183 177 178 175 182 179 185 186 186 187 190 185 186 197 207 210 210 210 208 202 206 211 210 207
243 218 210 220 217 225 237 248 246 225 173 192 212 192 190 164 199 173 103 169 255 261 230 71 110 159 164 174 184 190 193 193 186 189 195 197 202 201 202 202 197 202 208 209 209 213 214 213 213 212 213 210 207 209 205 207 207 196 201 203 201 200 185 175 177 182 182 177 177 153 68 194 209 192 184 184 198 205 209 210 212 202 206 212 211 210 212
228 230 189 190 173 159 257 253 241 229 187 162 144 90 89 231 140 124 169 217 218 230 121 133 155 168 191 192 187 191 205 198 190 190 192 196 196 197 189 185 192 195 200 206 210 215 215 214 213 216 212 211 212 211 203 216 208 204 209 207 203 190 175 179 178 139 108 106 59 76 218 233 228 219 192 191 200 204 210 208 194 198 213 212 216 215 214
225 220 153 137 131 205 231 235 197 165 159 142 115 72 313 214 140 192 194 242 209 129 162 176 190 174 190 192 203 195 183 173 181 194 197 193 189 182 182 184 187 197 194 197 208 211 215 218 218 220 212 216 221 192 211 218 202 211 211 212 194 166 145 136 119 127 112 109 148 176 208 230 232 223 202 202 206 208 208 198 198 208 213 215 216 214 218
221 182 126 139 198 219 243 336 284 105 93 100 107 112 48 16 41 92 155 314 273 204 181 187 187 188 92 50 101 107 131 161 166 175 181 180 167 174 177 190 201 198 196 201 205 208 218 216 204 183 198 208 194 192 210 215 215 210 197 174 154 154 152 148 160 167 163 160 169 183 196 235 244 234 221 215 213 209 206 206 204 207 211 214 221 208 185
76 105 168 189 226 232 323 358 352 59 111 115 85 45 21 15 343 35 59 317 282 282 278 93 125 125 131 88 63 92 96 132 155 150 174 180 175 175 186 182 197 193 196 198 197 207 212 189 191 193 209 197 189 196 177 199 190 182 169 159 154 149 154 163 169 171 171 174 156 154 162 218 242 247 235 224 218 213 210 216 214 209 217 216 205 175 191
162 170 168 186 133 73 8 8 24 11 311 113 115 115 21 3 334 309 148 89 51 28 357 137 126 123 100 85 46 34 105 175 218 171 171 171 185 179 184 182 190 194 189 193 204 190 173 192 192 210 196 160 175 177 184 184 172 166 151 159 166 166 168 171 173 170 137 107 113 164 167 222 235 237 245 237 229 212 211 213 206 207 215 192 167 170 188
123 124 94 107 53 128 255 227 276 263 274 281 169 107 241 341 354 349 57 108 94 73 45 60 150 119 96 96 82 5 353 331 214 333 117 157 165 166 169 188 135 153 174 171 167 171 168 181 194 160 153 172 174 182 186 175 158 149 156 165 172 171 175 173 146 124 136 144 155 164 174 230 235 229 231 230 227 206 206 208 205 209 191 167 153 150 116
38 47 121 169 121 248 215 293 308 312 320 342 283 77 352 345 351 347 49 43 69 108 115 98 48 94 104 107 261 305 325 343 114 118 110 103 171 213 188 178 175 177 180 173 165 148 149 172 181 168 162 157 163 181 187 169 144 144 165 168 178 180 158 122 117 142 135 141 159 164 189 220 230 232 234 229 227 194 211 201 196 168 154 138 150 165 155
83 131 81 90 207 108 334 306 312 312 321 333 72 90 253 320 343 338 50 48 40 44 60 74 60 81 76 3 329 326 305 113 83 91 88 59 43 27 14 12 110 137 129 106 112 149 176 191 177 166 162 163 176 187 191 167 160 171 180 186 167 114 125 143 147 145 135 128 163 185 221 229 227 231 246 31 29 336 243 183 156 158 143 122 97 48 35
54 69 69 62 13 313 312 312 314 319 320 67 85 150 225 320 334 348 79 74 77 76 63 67 84 76 138 151 284 318 12 52 41 45 65 102 110 91 63 52 58 98 128 152 169 186 192 181 175 168 162 164 185 193 183 178 190 178 170 153 143 149 142 130 125 125 146 163 179 199 219 229 231 199 118 168 200 202 196 177 149 122 98 100 124 146 162
82 90 83 25 215 217 295 317 315 298 47 60 121 201 243 341 9 4 60 77 67 76 74 80 87 102 356 341 20 38 35 46 50 48 65 81 76 76 94 79 62 80 106 359 285 212 190 183 178 169 164 175 189 181 134 60 58 99 90 72 88 99 121 123 125 137 158 185 202 214 228 251 227 195 174 179 197 181 156 155 149 149 152 142 136 191 252
51 51 74 29 53 277 347 317 349 15 89 196 183 104 23 3 33 65 52 54 53 69 84 84 96 82 56 51 45 42 39 30 27 20 33 57 76 88 88 80 111 128 192 249 303 6 14 18 21 15 29 164 80 75 82 91 90 99 104 93 73 82 103 131 160 173 177 216 239 245 250 202 174 97 47 69 58 79 81 69 62 220 197 179 186 202 186
115 54 96 179 221 281 316 11 92 333 82 130 106 107 89 30 47 53 68 44 44 56 76 75 67 58 56 41 35 43 30 23 14 14 5 5 19 19 360 114 141 121 101 76 90 91 61 31 38 54 92 94 84 79 80 104 107 99 99 112 115 119 150 166 165 128 302 353 339 215 142 120 121 128 137 148 161 162 170 172 181 183 183 177 166 157 163
117 167 178 233 254 263 310 79 96 89 69 68 75 84 86 90 52 44 69 60 39 41 57 62 57 52 42 54 42 52 22 13 5 357 341 344 334 319 9 69 76 73 94 105 98 89 95 83 66 77 86 95 96 104 137 118 117 118 112 110 123 147 162 162 169 137 194 173 239 202 147 142 143 187 191 176 181 186 170 174 172 161 167 163 158 163 159
79 58 68 39 335 340 36 59 87 94 77 55 52 72 80 50 56 61 85 75 62 49 38 60 47 54 47 45 29 26 19 13 2 349 342 349 342 334 332 83 80 90 90 95 99 95 82 92 100 100 105 108 103 119 131 124 115 112 112 108 112 123 132 134 130 133 166 203 243 206 207 186 177 189 192 184 166 166 166 163 166 159 165 154 155 160 169
79 81 324 15 357 342 36 84 71 80 90 97 95 78 73 60 10 17 32 65 79 70 56 59 62 45 38 48 36 34 27 17 7 1 355 333 334 341 347 323 137 126 121 112 111 107 98 101 98 89 86 85 97 104 102 108 111 111 109 104 102 106 108 125 152 170 159 183 239 286 19 181 162 170 154 163 160 172 172 163 169 164 151 159 157 162 170
113 161 196 55 20 28 351 22 87 88 88 91 96 114 116 97 66 18 28 40 41 38 46 55 64 48 33 38 27 19 26 16 357 13 2 338 344 325 117 19 62 85 87 100 109 112 113 105 98 100 101 106 112 110 108 109 107 103 104 110 112 121 137 138 100 104 131 121 69 42 29 359 79 127 208 205 183 173 174 169 154 154 159 160 169 171 179
87 94 126 154 109 47 33 36 30 43 78 79 64 53 52 50 53 44 34 36 44 35 30 20 49 56 37 46 43 26 356 7 357 348 334 337 313 286 2 34 58 91 107 115 126 123 118 118 108 107 112 117 119 117 118 121 119 113 115 122 133 131 125 127 124 110 89 82 111 91 92 60 16 2 342 345 60 82 18 4 98 157 169 174 175 178 161
109 152 170 167 116 100 41 34 35 59 65 84 86 79 61 46 43 34 56 38 42 54 39 34 28 42 27 19 24 17 32 354 303 317 325 333 321 294 304 190 127 133 138 141 139 131 131 129 124 122 126 127 124 124 126 124 120 117 122 122 124 136 141 138 141 134 157 180 175 179 176 176 178 135 65 57 17 45 83 33 44 34 80 167 176 154 132
137 163 136 119 113 107 85 107 72 74 83 85 80 80 89 88 90 91 65 50 36 29 20 17 26 19 14 2 4 8 9 335 341 342 301 268 260 315 194 127 133 137 145 145 139 136 140 142 134 134 133 136 135 141 138 139 131 131 135 132 141 160 167 178 185 169 173 187 178 182 191 178 136 134 137 60 52 49 53 56 51 58 79 96 103 116 134
92 142 146 132 104 103 96 71 60 53 58 89 89 89 90 90 83 71 67 65 72 44 24 19 19 16 14 9 13 8 356 3 348 300 255 249 234 167 181 181 169 153 150 154 152 149 151 149 144 142 141 149 150 155 154 152 142 134 142 146 163 181 183 184 181 178 181 180 165 163 163 145 139 146 143 130 76 45 51 44 46 55 63 82 94 99 111
112 126 104 98 108 110 102 88 72 55 30 73 83 78 80 80 75 83 86 76 70 74 56 30 11 19 23 13 15 11 1 349 351 334 329 346 62 148 169 174 180 173 168 161 150 146 151 149 144 145 137 162 192 187 158 143 139 140 156 163 175 191 190 168 168 180 157 156 159 159 149 150 155 158 153 155 148 138 36 54 64 58 48 59 82 95 94
108 106 93 82 71 53 79 73 44 34 24 28 66 59 63 84 92 81 79 91 88 80 75 51 29 9 23 17 10 360 3 3 345 351 355 351 12 53 49 26 343 336 15 109 126 133 148 161 161 152 162 185 209 224 157 154 137 136 159 176 183 192 177 177 161 168 157 155 160 167 160 161 165 161 149 129 146 145 125 94 51 46 52 51 58 81 79
51 27 76 56 47 43 37 60 69 11 40 49 67 80 73 63 78 91 87 66 62 58 62 62 63 25 15 10 1 4 4 340 355 2 350 353 7 58 149 120 97 91 74 63 48 33 23 2 329 291 183 206 210 166 147 145 144 146 157 171 204 226 212 182 179 199 177 163 159 152 147 154 151 136 133 135 142 150 168 170 166 160 171 125 44 50 88
50 39 55 102 95 80 56 36 62 59 45 42 45 49 58 114 69 52 42 39 36 31 32 24 24 28 22 3 6 351 356 359 351 338 339 335 317 255 121 112 108 105 106 106 117 147 173 184 206 251 237 218 190 165 155 162 158 158 163 176 193 210 218 213 204 204 176 161 158 164 170 162 155 156 158 152 159 168 155 148 141 136 130 120 93 97 101
50 56 51 69 100 127 154 144 54 47 41 35 47 45 37 41 36 38 29 22 9 15 22 12 4 10 16 349 358 353 339 338 338 334 320 311 306 254 153 126 124 125 133 151 175 174 181 187 217 232 238 201 182 186 172 169 173 176 176 181 182 182 185 176 163 157 154 157 161 165 161 165 160 150 136 139 134 139 144 148 153 161 140 129 114 76 26
66 69 78 78 81 84 61 45 38 32 37 29 39 38 39 42 35 22 19 11 13 22 357 344 3 348 324 343 345 337 327 318 308 302 304 302 301 239 173 134 120 123 142 163 180 183 178 190 215 221 228 201 185 179 178 175 176 169 166 163 157 154 154 148 137 138 145 159 161 152 142 121 109 124 135 148 161 154 167 180 164 153 152 171 176 173 178
96 77 71 63 53 53 66 63 47 42 35 29 33 36 24 26 29 13 359 350 3 359 354 355 330 314 326 326 304 299 284 283 285 293 294 296 300 242 180 155 138 157 174 188 192 177 183 205 210 213 215 191 172 164 165 172 160 149 139 127 127 139 140 143 144 147 140 128 118 114 108 114 136 150 153 164 172 174 182 175 166 161 167 171 179 184 199
121 64 55 47 46 44 39 31 30 28 19 15 29 29 16 17 1 343 339 348 336 333 328 337 339 327 311 289 278 288 307 313 314 312 307 295 298 276 216 201 178 170 173 176 182 181 187 189 198 209 186 169 158 172 165 153 139 132 126 124 116 113 126 121 111 110 118 115 120 129 147 162 174 173 173 185 188 180 179 173 169 173 169 178 190 201 181
44 24 18 10 14 25 25 19 21 8 6 12 10 354 350 346 340 336 333 323 329 328 325 312 303 304 306 312 319 329 331 317 305 302 312 324 332 329 309 294 302 178 169 184 182 177 172 167 164 150 126 125 110 98 100 97 97 100 92 96 103 111 103 82 95 106 115 126 149 163 174 178 169 179 193 192 182 174 179 178 175 177 182 189 192 179 169
70 87 77 27 39 20 1 352 356 358 353 356 356 354 351 346 345 339 331 325 324 315 308 298 292 296 306 311 316 316 326 337 325 319 329 346 2 23 24 37 45 50 40 47 63 60 42 25 30 75 73 80 82 80 73 88 93 98 107 110 109 104 97 106 115 115 128 137 161 190 190 182 158 165 137 37 355 233 176 180 183 176 164 171 167 153 147
56 45 41 27 22 12 15 9 347 339 343 345 346 345 341 330 331 320 312 321 312 297 300 304 305 305 303 302 300 298 297 279 277 288 296 66 75 69 82 88 78 71 63 48 54 83 99 100 307 58 72 76 75 78 95 100 104 100 93 92 91 88 99 101 103 110 108 91 99 109 123 132 141 110 116 137 172 193 194 176 165 154 157 159 159 144 155
33 32 22 15 6 6 9 359 350 336 331 307 300 300 307 306 307 312 313 304 302 311 312 312 310 314 308 302 300 297 293 291 272 210 180 165 147 124 108 100 97 89 94 76 16 111 135 131 104 86 75 83 84 83 94 101 94 97 101 99 98 102 107 115 118 92 76 88 92 92 84 70 67 75 145 120 133 149 163 171 176 170 164 160 158 162 161
18 38 21 4 356 356 356 345 340 338 322 308 304 306 302 297 293 290 295 308 311 312 311 312 315 313 304 297 294 292 289 282 236 185 179 157 110 105 111 104 93 103 102 110 131 151 113 106 117 117 107 99 99 97 99 101 98 105 104 105 110 114 113 114 110 106 109 117 121 119 110 109 188 203 184 164 163 163 165 165 151 143 153 161 163 168 163
10 15 6 359 342 350 335 323 319 320 319 319 312 298 295 302 310 318 321 316 311 306 306 302 294 289 289 292 295 292 290 265 167 160 157 120 90 86 64 76 69 40 55 32 25 36 38 98 100 83 66 45 38 49 112 114 108 101 101 111 121 127 130 132 125 128 137 153 158 161 173 183 191 200 191 144 158 153 146 144 147 161 173 172 170 172 171
21 11 14 358 5 350 334 326 333 332 328 325 312 303 305 319 328 339 328 315 305 309 318 318 313 301 296 299 302 305 289 247 178 148 124 72 63 96 119 131 149 170 210 199 137 151 142 131 112 110 114 133 155 184 124 102 98 94 100 105 108 124 127 130 133 140 144 150 139 153 163 176 172 170 162 157 157 159 161 167 163 157 162 170 169 177 179
15 10 358 1 355 345 341 325 318 313 316 312 320 306 311 327 333 326 312 313 310 323 321 314 320 320 322 325 325 322 320 321 313 347 112 120 103 93 73 37 29 88 120 126 128 174 130 118 111 113 128 138 137 118 105 103 98 96 95 95 101 100 104 105 105 118 126 138 165 163 160 183 185 186 181 178 175 177 179 171 160 165 171 176 183 183 182
8 359 352 351 340 333 325 321 316 309 307 314 301 294 306 310 309 317 320 315 309 321 321 322 311 325 341 341 336 329 341 26 34 14 11 46 60 68 92 123 313 312 58 73 72 121 105 109 127 120 121 120 115 108 102 98 93 91 97 97 97 103 108 125 133 137 163 172 190 184 190 197 194 195 195 195 195 196 189 180 171 178 178 181 184 185 189
351 1 351 345 337 338 329 316 315 322 319 306 308 320 322 324 328 313 308 315 320 326 328 326 325 332 334 328 13 47 27 24 65 45 34 25 38 75 96 68 255 334 99 131 147 140 132 134 126 128 132 122 112 113 108 101 103 106 99 98 92 93 86 86 87 126 152 152 151 141 149 174 210 228 225 209 206 202 196 193 190 186 189 185 183 185 187
352 358 347 336 323 323 328 320 304 298 298 300 301 306 308 311 315 317 323 328 332 327 322 317 321 331 342 9 26 38 65 28 101 119 146 140 120 185 174 205 131 54 120 127 125 135 135 131 133 136 129 119 128 125 114 111 116 114 119 119 111 114 122 120 114 116 119 129 157 185 185 194 199 210 215 218 218 208 198 195 197 198 195 190 187 182 190
313 329 325 323 313 302 308 310 306 311 311 306 301 298 295 284 265 284 299 309 312 312 309 316 328 335 341 346 58 75 10 11 29 31 42 1 355 334 240 191 158 177 152 143 143 145 141 142 142 148 145 143 134 121 111 110 105 107 103 107 116 121 124 123 129 138 141 144 155 183 193 213 211 212 214 226 228 220 206 203 205 203 201 193 189 188 190
321 312 317 304 299 306 294 286 274 273 271 275 289 293 292 296 297 279 273 279 292 298 312 318 324 331 351 325 229 237 204 153 144 99 78 47 339 300 263 176 186 169 152 145 135 137 143 153 166 157 146 139 134 123 111 114 116 122 127 127 127 133 139 153 168 177 173 174 186 201 205 219 232 250 248 238 223 217 216 209 209 203 200 196 193 192 189
315 307 284 309 302 271 255 245 251 247 256 282 320 329 346 326 309 305 302 300 301 300 296 302 306 313 326 329 251 242 257 206 178 179 205 190 199 247 199 165 155 160 155 144 133 145 168 180 169 145 144 147 139 128 134 141 140 139 143 151 161 156 173 178 180 198 193 200 201 199 199 208 220 246 243 243 237 226 220 213 211 204 199 200 198 196 192
304 304 294 274 275 263 263 267 258 274 14 21 14 342 327 334 328 313 302 294 281 283 294 298 298 294 288 283 238 116 117 128 300 278 258 257 267 261 178 161 162 159 146 149 158 168 179 172 153 154 162 159 143 140 151 152 156 155 162 168 174 181 183 194 196 201 210 217 215 214 241 214 297 310 296 280 258 238 228 217 213 211 207 203 200 195 191
311 301 289 282 288 295 307 330 4 3 1 359 308 299 311 318 320 313 305 305 302 297 290 290 288 295 305 321 216 196 177 160 186 275 238 233 260 244 159 141 154 154 156 163 167 180 181 165 169 175 174 166 149 159 166 165 160 164 173 184 187 196 194 210 219 199 201 217 223 235 267 287 292 293 294 285 284 278 262 227 220 217 210 204 202 196 189
270 258 262 265 273 311 337 330 329 330 322 324 343 322 317 323 317 315 316 325 329 317 303 298 296 291 290 289 294 268 202 182 161 228 241 184 182 194 203 187 170 161 155 165 173 185 189 182 185 186 186 168 160 176 176 176 172 179 195 204 218 219 203 206 221 215 212 226 229 229 239 251 261 260 275 281 269 261 259 248 229 216 210 205 200 195 195
285 264 265 279 297 302 298 316 313 287 290 331 320 306 313 333 337 315 319 322 308 305 308 300 293 285 281 290 294 286 255 222 226 228 230 209 200 191 190 193 184 167 168 174 180 195 202 197 197 198 196 172 177 187 186 187 194 197 206 216 224 227 224 219 215 205 207 220 226 232 233 232 243 253 250 251 265 260 245 245 245 228 206 193 192 193 192
320 308 279 263 259 268 270 245 263 289 298 289 276 282 296 312 288 290 303 300 307 312 302 308 308 296 300 303 299 297 285 281 274 252 219 227 220 221 208 196 194 183 182 185 192 197 201 205 205 211 207 190 192 193 194 197 200 210 215 218 225 233 242 235 219 213 211 214 221 226 229 233 233 240 251 252 249 248 240 233 235 232 209 200 191 188 186
288 265 266 274 284 294 300 296 281 270 266 270 267 274 276 262 268 292 297 293 276 261 278 308 310 296 244 250 276 283 283 267 257 264 239 214 213 227 235 218 207 201 193 198 204 204 205 210 212 213 212 205 200 205 209 204 205 212 218 219 220 226 232 230 215 208 212 214 215 222 228 229 222 225 234 232 233 234 228 221 212 204 199 192 187 181 178